Home > Weather > Görlitz > Past weeks

Flag for Germany Weather for the Past 2 Weeks in Görlitz, Saxony, Germany

Now
46 °F

Clear.


Feels Like: 41 °F
Forecast: 40 / 49 °F
Wind: 13 mph from Southwest

Location: Dresden-Klotzsche

Current Time: Feb 8, 2016 at 12:01:37 AM

Latest Report: Feb 7, 2016 at 10:50 PM


Visibility: 10 mi

Pressure: 29.74 "Hg

Humidity: 66%

Dew point: 36 °F

Location of GörlitzLocation

Historic Weather in Görlitz — Graph

°F

Görlitz Temperature Yesterday

Maximum temperature yesterday: 46 °F (at 9:50 PM)
Minimum temperature yesterday: 39 °F (at 6:20 AM)
Average temperature yesterday: 42 °F

High & Low Weather Summary for the Past Weeks

 TemperatureHumidityPressure
High55 °F (Jan 27, 1:50 PM)100% (Jan 23, 10:20 PM)30.51 "Hg (Jan 23, 10:20 PM)
Low32 °F (Jan 29, 2:50 AM)46% (Jan 29, 11:50 AM)29.62 "Hg (Feb 7, 2:20 PM)
Average43 °F77%30.05 "Hg
* Reported Jan 23 10:20 PM — Feb 7 10:20 PM, Görlitz, Weather by CustomWeather, © 2016

Note: Actual official high and low records may vary slightly from our data, if they occured in-between our weather recording intervals... More about our weather records

Advertising

Görlitz Weather History for the Previous 24 Hours

 ConditionsComfort  
Time TempWeatherWind HumidityBarometerVisibility
10:20 PM
Sun, Feb 7
46 °FPartly cloudy.14 mph66%29.74 "HgN/A
9:50 PM46 °FPassing clouds.15 mph66%29.74 "HgN/A
9:20 PM45 °FPartly cloudy.15 mph71%29.71 "HgN/A
8:50 PM43 °FClear.13 mph76%29.71 "Hg10 mi
8:20 PM43 °FClear.9 mph76%29.71 "Hg10 mi
7:50 PM41 °FClear.13 mph76%29.68 "Hg10 mi
7:20 PM41 °FClear.12 mph76%29.68 "Hg10 mi
6:50 PM41 °FClear.16 mph76%29.68 "Hg10 mi
6:20 PM41 °FClear.16 mph76%29.65 "Hg10 mi
5:50 PM41 °FClear.20 mph76%29.65 "Hg10 mi
5:20 PM41 °FClear.21 mph76%29.62 "Hg10 mi
4:20 PM41 °FSunny.21 mph76%29.62 "Hg10 mi
3:50 PM41 °FSunny.18 mph76%29.62 "Hg10 mi
3:20 PM41 °FSunny.21 mph76%29.65 "Hg10 mi
2:50 PM43 °FSunny.17 mph71%29.65 "Hg10 mi
2:20 PM43 °FSunny.16 mph71%29.62 "Hg10 mi
1:50 PM43 °FSunny.21 mph71%29.65 "Hg10 mi
1:20 PM43 °FSunny.22 mph71%29.65 "Hg10 mi
12:50 PM45 °FSunny.20 mph66%29.65 "Hg10 mi
12:20 PM45 °FSunny.21 mph66%29.65 "Hg10 mi
11:50 AM43 °FSunny.18 mph71%29.68 "Hg10 mi
11:20 AM43 °FSunny.18 mph71%29.68 "Hg10 mi
10:50 AM41 °FSunny.21 mph76%29.68 "Hg10 mi
10:20 AM41 °FSunny.16 mph70%29.71 "Hg10 mi
9:50 AM43 °FSunny.21 mph71%29.71 "Hg10 mi
9:20 AM41 °FSunny.20 mph70%29.71 "Hg10 mi
8:50 AM39 °FSunny.18 mph75%29.71 "Hg10 mi
8:20 AM39 °FSunny.20 mph75%29.71 "Hg10 mi
7:50 AM39 °FSunny.21 mph75%29.71 "Hg10 mi
7:20 AM39 °FClear.22 mph75%29.71 "Hg10 mi
6:50 AM39 °FClear.18 mph75%29.71 "Hg10 mi
6:20 AM39 °FClear.18 mph75%29.71 "Hg10 mi
5:50 AM41 °FClear.21 mph70%29.71 "Hg10 mi
5:20 AM41 °FClear.22 mph70%29.71 "Hg10 mi
4:20 AM41 °FClear.21 mph76%29.71 "Hg10 mi
3:50 AM41 °FClear.22 mph76%29.74 "Hg10 mi
3:20 AM41 °FClear.21 mph76%29.74 "Hg10 mi
2:20 AM41 °FClear.17 mph81%29.77 "Hg10 mi
1:50 AM41 °FClear.17 mph81%29.77 "Hg10 mi
1:20 AM41 °FClear.17 mph81%29.80 "Hg10 mi
12:50 AM43 °FClear.18 mph76%29.80 "Hg10 mi
12:20 AM45 °FClear.18 mph76%29.83 "Hg10 mi
Weather by CustomWeather, © 2016

See weather overviewHow to use our weather pages